Terug naar catalogus

STARLINK-37209

ActiefCommunicatieVLEO
NORAD 69187·PAYLOAD·🇺🇸 United States

Gelanceerd May 25, 2026 vanaf Cape Canaveral Space Force Station

Loading…

Volgende Passages (komende 24 uur)

TLE

VersSource: CelesTrak SupGP

Epoch: Sep 14, 2026, 21:04 UTC

1 69187C 26114F   26257.87826389 -.00000254  00000+0 -74945-5 0  2571
2 69187  53.1560 140.2388 0001322  83.8736 144.2142 15.34426664    12

Volg STARLINK-37209 in realtime met AllMySat

Download on the App Store